AST,Max TemperatureF,Mean TemperatureF,Min TemperatureF,Max Dew PointF,MeanDew PointF,Min DewpointF,Max Humidity, Mean Humidity, Min Humidity, Max Sea Level PressureIn, Mean Sea Level PressureIn, Min Sea Level PressureIn, Max VisibilityMiles, Mean VisibilityMiles, Min VisibilityMiles, Max Wind SpeedMPH, Mean Wind SpeedMPH, Max Gust SpeedMPH,PrecipitationIn, CloudCover, Events, WindDirDegrees
2011-9-1,100,94,89,82,79,75,75,61,47,29.56,29.51,29.47,6,5,4,14,6,,0.00,1,,34
2011-9-2,104,96,89,84,78,64,84,61,27,29.56,29.51,29.47,6,5,4,13,6,,0.00,1,,28
2011-9-3,105,97,89,82,72,61,79,47,23,29.59,29.55,29.50,6,5,5,22,8,,0.00,,,350
2011-9-4,104,96,89,82,75,66,67,52,29,29.59,29.57,29.53,6,6,6,13,9,,0.00,,,348
2011-9-5,109,99,89,82,74,57,71,50,18,29.62,29.57,29.53,6,6,6,10,6,,0.00,,,351
2011-9-6,111,100,89,81,65,45,75,37,11,29.56,29.52,29.47,6,6,6,17,6,,0.00,1,,303
2011-9-7,109,99,89,75,59,43,62,28,14,29.53,29.50,29.47,6,6,6,21,9,23,0.00,,,313
2011-9-8,109,101,93,70,58,43,46,25,14,29.56,29.51,29.47,,,,17,12,24,0.00,,,338
2011-9-9,109,101,93,70,54,36,46,23,8,29.59,29.56,29.50,,,,20,11,,0.00,,,322
2011-9-10,102,96,89,84,75,57,75,53,27,29.62,29.59,29.53,,,,17,11,,0.00,,,343
2011-9-11,104,96,89,79,69,55,70,43,20,29.65,29.59,29.56,,,,17,9,,0.00,,,342
2011-9-12,107,99,91,72,56,37,52,28,10,29.62,29.57,29.53,6,6,6,21,10,33,0.00,,,326
2011-9-13,105,97,89,73,63,52,59,36,17,29.59,29.54,29.50,6,6,6,21,10,30,0.00,,,303
2011-9-14,96,91,86,81,76,72,75,61,44,29.62,29.58,29.53,6,6,5,13,10,,0.00,1,,5
2011-9-15,102,94,86,82,77,70,89,61,35,29.65,29.61,29.56,6,5,4,16,10,,0.00,,,358
2011-9-16,104,96,87,75,68,59,66,43,24,29.65,29.60,29.56,,,,20,10,24,0.00,,,329
2011-9-17,107,98,89,73,62,50,59,35,15,29.65,29.60,29.56,,,,21,11,,0.00,,,329
2011-9-18,105,96,86,77,55,34,70,31,8,29.65,29.62,29.59,6,5,4,14,7,,0.00,,,288
2011-9-19,98,90,82,77,69,54,70,53,22,29.74,29.69,29.65,6,5,5,12,4,,0.00,,,51
2011-9-20,95,90,84,77,68,64,74,51,36,29.77,29.73,29.71,,,,10,5,,0.00,,,73
2011-9-21,98,92,86,79,72,63,75,54,30,29.77,29.72,29.68,6,5,4,9,6,,0.00,1,,50
2011-9-22,102,93,84,81,75,61,84,61,26,29.74,29.70,29.65,6,5,4,14,8,,0.00,,,23
2011-9-23,102,94,86,82,74,55,84,59,21,29.74,29.69,29.65,6,5,4,15,5,,0.00,,,87
2011-9-24,102,93,84,82,78,64,89,67,29,29.74,29.71,29.68,6,4,3,12,5,,0.00,,,90
2011-9-25,104,94,84,82,78,57,84,67,21,29.80,29.75,29.71,6,4,3,12,5,,0.00,,,146
2011-9-26,104,94,84,81,76,66,89,60,29,29.83,29.76,29.71,6,4,2,12,4,,0.00,,,28
2011-9-27,105,94,84,81,69,54,71,46,28,29.80,29.74,29.71,6,6,5,10,5,,0.00,1,,330
2011-9-28,100,94,87,82,74,64,84,57,34,29.77,29.73,29.68,6,6,5,10,5,,0.00,,,38
2011-9-29,98,92,86,82,80,72,89,71,42,29.80,29.75,29.71,6,5,4,10,4,,0.00,2,,65
2011-9-30,98,92,86,82,80,77,84,72,50,29.80,29.77,29.74,5,3,2,10,4,,0.00,1,,88